Weather History for Presque Isle, ME

Change the Weather History Date:

Saturday, February 23, 2013

  Actual Average Record
Temperature  
Mean Temperature 17 °F -  
Max Temperature 28 °F 28 °F 49 °F (1981)
Min Temperature 6 °F 9 °F -23 °F (1972)
Degree Days  
Heating Degree Days 48    
Moisture  
Dew Point 14 °F    
Average Humidity 77    
Maximum Humidity 93    
Minimum Humidity 64    
Precipitation  
Precipitation 0.00 in - - ()
Sea Level Pressure  
Sea Level Pressure 30.15 in    
Wind  
Wind Speed 3 mph (SE)    
Max Wind Speed 9 mph    
Max Gust Speed -    
Visibility 9 miles    
Events      
Averages and records for this station are not official NWS values.
T = Trace of Precipitation, MM = Missing Value Source: NWS Daily Summary

Daily Weather History Graph

Daily Weather History Graph

Search for Another Location

Airport:

Trip Planner

Search our weather history database for the weather conditions in past years. The results will help you decide how hot, cold, wet, or windy it might be!

Date:

Astronomy

Feb. 23, 2013 Rise Set
Actual Time 6:22 AM EST 5:09 PM EST
Civil Twilight 5:51 AM EST 5:40 PM EST
Nautical Twilight 5:16 AM EST 6:15 PM EST
Astronomical Twilight 4:41 AM EST 6:50 PM EST
Moon 3:12 PM EST (2/23) 4:47 AM EST (2/23)
Length of Visible Light 11h 48m
Length of Day
10h 47m
Waxing Gibbous, 95% of the Moon is Illuminated
Feb 23
Waxing Gibbous
Feb 25
Full
Mar 4
Last Quarter
Mar 11
New
Mar 19
First Quarter

Hourly Weather History & Observations

Time (EST) Temp. Windchill Dew Point Humidity Pressure Visibility Wind Dir Wind Speed Gust Speed Precip Events Conditions
12:15 AM 6.8 °F - 1.4 °F 79% 30.28 in 10.0 mi Calm Calm - N/A   Clear
12:35 AM 8.6 °F 2.0 °F 1.4 °F 73% 30.28 in 10.0 mi SW 3.5 mph - N/A   Partly Cloudy
12:55 AM 6.8 °F -0.1 °F 1.4 °F 79% 30.26 in 10.0 mi North 3.5 mph - N/A   Scattered Clouds
1:15 AM 6.8 °F - 1.4 °F 79% 30.26 in 10.0 mi Calm Calm - N/A   Mostly Cloudy
1:35 AM 6.8 °F - 1.4 °F 79% 30.26 in 10.0 mi Calm Calm - N/A   Overcast
1:55 AM 8.6 °F - 3.2 °F 79% 30.26 in 10.0 mi Calm Calm - N/A   Overcast
2:15 AM 8.6 °F - 1.4 °F 73% 30.26 in 10.0 mi Calm Calm - N/A   Overcast
2:35 AM 8.6 °F - 3.2 °F 79% 30.25 in 10.0 mi Calm Calm - N/A   Overcast
2:55 AM 8.6 °F - 5.0 °F 85% 30.26 in 10.0 mi Calm Calm - N/A   Overcast
3:15 AM 10.4 °F - 6.8 °F 85% 30.25 in 10.0 mi Calm Calm - N/A   Overcast
3:35 AM 8.6 °F - 6.8 °F 92% 30.25 in 10.0 mi Calm Calm - N/A   Overcast
3:55 AM 8.6 °F - 6.8 °F 92% 30.25 in 10.0 mi Calm Calm - N/A   Overcast
4:15 AM 8.6 °F - 6.8 °F 92% 30.25 in 10.0 mi Calm Calm - N/A   Overcast
4:35 AM 8.6 °F - 6.8 °F 92% 30.24 in 10.0 mi Calm Calm - N/A   Overcast
4:55 AM 10.4 °F - 6.8 °F 85% 30.24 in 10.0 mi Calm Calm - N/A   Overcast
5:15 AM 10.4 °F - 8.6 °F 92% 30.23 in 10.0 mi Calm Calm - N/A   Overcast
5:35 AM 10.4 °F - 6.8 °F 85% 30.23 in 10.0 mi Calm Calm - N/A   Overcast
5:55 AM 10.4 °F - 6.8 °F 85% 30.23 in 10.0 mi Calm Calm - N/A   Overcast
6:15 AM 10.4 °F - 8.6 °F 92% 30.24 in 10.0 mi Calm Calm - N/A   Overcast
6:35 AM 10.4 °F - 6.8 °F 85% 30.24 in 10.0 mi Calm Calm - N/A   Overcast
6:55 AM 10.4 °F - 6.8 °F 85% 30.24 in 10.0 mi Calm Calm - N/A   Overcast
7:15 AM 12.2 °F - 8.6 °F 85% 30.24 in - Calm Calm - N/A   Overcast
7:55 AM 14.0 °F - 12.2 °F 93% 30.24 in 10.0 mi Calm Calm - N/A   Overcast
8:15 AM 15.8 °F - 12.2 °F 86% 30.24 in 10.0 mi Calm Calm - N/A   Overcast
8:35 AM 17.6 °F - 15.8 °F 93% 30.24 in - Calm Calm - N/A   Overcast
8:55 AM 19.4 °F - 15.8 °F 86% 30.24 in - Calm Calm - N/A   Overcast
9:15 AM 19.4 °F - 15.8 °F 86% 30.24 in - Calm Calm - N/A   Overcast
9:35 AM 21.2 °F 11.7 °F 17.6 °F 86% 30.23 in 10.0 mi SE 8.1 mph - N/A   Overcast
9:55 AM 21.2 °F 12.6 °F 15.8 °F 80% 30.22 in 10.0 mi SSE 6.9 mph - N/A   Overcast
10:15 AM 21.2 °F 13.6 °F 15.8 °F 80% 30.22 in 10.0 mi SSE 5.8 mph - N/A   Overcast
10:35 AM 23.0 °F 15.8 °F 15.8 °F 74% 30.21 in 10.0 mi SSE 5.8 mph - N/A   Overcast
10:55 AM 23.0 °F 14.7 °F 15.8 °F 74% 30.20 in 10.0 mi SE 6.9 mph - N/A   Overcast
11:15 AM 23.0 °F 15.8 °F 17.6 °F 80% 30.19 in 10.0 mi ESE 5.8 mph - N/A   Overcast
11:35 AM 24.8 °F 17.9 °F 17.6 °F 74% 30.18 in 10.0 mi ESE 5.8 mph - N/A   Overcast
11:55 AM 24.8 °F 16.1 °F 17.6 °F 74% 30.17 in 10.0 mi SE 8.1 mph - N/A   Overcast
12:35 PM 24.8 °F 16.1 °F 17.6 °F 74% 30.16 in 10.0 mi ESE 8.1 mph - N/A   Overcast
12:55 PM 24.8 °F 17.9 °F 17.6 °F 74% 30.15 in 10.0 mi SE 5.8 mph - N/A   Overcast
1:15 PM 26.6 °F 18.2 °F 17.6 °F 69% 30.13 in 10.0 mi ESE 8.1 mph - N/A   Overcast
1:35 PM 26.6 °F 19.1 °F 17.6 °F 69% 30.13 in 10.0 mi ESE 6.9 mph - N/A   Overcast
1:55 PM 26.6 °F 18.2 °F 17.6 °F 69% 30.12 in 10.0 mi SE 8.1 mph - N/A   Overcast
2:15 PM 28.4 °F 24.6 °F 17.6 °F 64% 30.11 in 10.0 mi ESE 3.5 mph - N/A   Overcast
2:35 PM 26.6 °F 20.0 °F 17.6 °F 69% 30.11 in 10.0 mi ESE 5.8 mph - N/A   Overcast
2:55 PM 28.4 °F 22.2 °F 17.6 °F 64% 30.10 in 10.0 mi SSE 5.8 mph - N/A   Overcast
3:15 PM 28.4 °F 23.3 °F 17.6 °F 64% 30.09 in 10.0 mi ESE 4.6 mph - N/A   Overcast
3:35 PM 28.4 °F 23.3 °F 17.6 °F 64% 30.09 in 10.0 mi SE 4.6 mph - N/A   Overcast
3:55 PM 28.4 °F 21.2 °F 19.4 °F 69% 30.09 in 10.0 mi SE 6.9 mph - N/A   Overcast
4:15 PM 28.4 °F 21.2 °F 17.6 °F 64% 30.09 in 10.0 mi SE 6.9 mph - N/A   Overcast
4:35 PM 28.4 °F 22.2 °F 19.4 °F 69% 30.09 in 10.0 mi ESE 5.8 mph - N/A   Overcast
4:55 PM 28.4 °F 23.3 °F 19.4 °F 69% 30.08 in 10.0 mi ESE 4.6 mph - N/A   Overcast
5:15 PM 28.4 °F 22.2 °F 19.4 °F 69% 30.08 in 10.0 mi ESE 5.8 mph - N/A   Overcast
5:35 PM 28.4 °F 23.3 °F 19.4 °F 69% 30.07 in 10.0 mi ESE 4.6 mph - N/A   Overcast
5:55 PM 28.4 °F 22.2 °F 19.4 °F 69% 30.06 in 10.0 mi ESE 5.8 mph - N/A   Overcast
6:15 PM 28.4 °F 24.6 °F 19.4 °F 69% 30.06 in 10.0 mi East 3.5 mph - N/A   Overcast
6:35 PM 28.4 °F 23.3 °F 19.4 °F 69% 30.05 in 10.0 mi East 4.6 mph - N/A   Overcast
6:55 PM 28.4 °F - 19.4 °F 69% 30.05 in 10.0 mi Calm Calm - N/A   Overcast
7:15 PM 28.4 °F - 19.4 °F 69% 30.05 in 10.0 mi Calm Calm - N/A   Overcast
7:35 PM 28.4 °F - 19.4 °F 69% 30.05 in 10.0 mi Calm Calm - N/A   Overcast
7:55 PM 26.6 °F 22.6 °F 19.4 °F 74% 30.05 in 10.0 mi South 3.5 mph - N/A   Overcast
8:15 PM 28.4 °F 20.4 °F 19.4 °F 69% 30.05 in 10.0 mi SE 8.1 mph - N/A   Overcast
8:35 PM 26.6 °F 19.1 °F 19.4 °F 74% 30.04 in 10.0 mi SE 6.9 mph - N/A   Overcast
8:55 PM 26.6 °F 18.2 °F 19.4 °F 74% 30.04 in 10.0 mi SE 8.1 mph - N/A   Overcast
9:15 PM 26.6 °F 19.1 °F 17.6 °F 69% 30.04 in 10.0 mi SE 6.9 mph - N/A   Overcast
9:35 PM 26.6 °F 18.2 °F 19.4 °F 74% 30.03 in 8.0 mi SE 8.1 mph - N/A   Overcast
9:55 PM 26.6 °F 17.5 °F 19.4 °F 74% 30.03 in 5.0 mi SE 9.2 mph - N/A   Overcast
10:15 PM 24.8 °F 16.1 °F 19.4 °F 80% 30.03 in 2.5 mi SE 8.1 mph - N/A   Overcast
10:35 PM 24.8 °F 17.9 °F 21.2 °F 86% 30.02 in 3.0 mi SE 5.8 mph - N/A   Overcast
10:55 PM 24.8 °F 16.1 °F 19.4 °F 80% 30.01 in 3.0 mi SE 8.1 mph - N/A   Overcast
11:16 PM 24.8 °F 15.3 °F 21.2 °F 86% 30.01 in 2.0 mi SE 9.2 mph - N/A   Overcast
11:35 PM 24.8 °F 16.9 °F 19.4 °F 80% 30.01 in 4.0 mi SE 6.9 mph - N/A   Overcast